This is the latest recevied weather packets stored in our database for station/object N0HOT. If no packets are shown the sender has not sent any weather packets the latest 10 day(s).
| Time | Temp. | Humidity | Pressure | Rain* | Wind** | Luminosity | Snow |
|---|---|---|---|---|---|---|---|
| 1778003353 | 11.67° C | 28% | 1010.5 hPa | 0 mm | - | 924 W/m² | - |
| 1778003050 | 11.67° C | 27% | 1010.8 hPa | 0 mm | - | 241 W/m² | - |
| 1778002746 | 11.67° C | 28% | 1010.5 hPa | 0 mm | - | 254 W/m² | - |
| 1778002443 | 11.67° C | 28% | 1010.8 hPa | 0 mm | - | 303 W/m² | - |
| 1778002140 | 11.67° C | 27% | 1010.8 hPa | 0 mm | - | 253 W/m² | - |
| 1778001838 | 11.67° C | 26% | 1010.5 hPa | 0 mm | - | 234 W/m² | - |
| 1778001537 | 11.67° C | 27% | 1010.8 hPa | 0 mm | - | 344 W/m² | - |
| 1778001234 | 11.67° C | 28% | 1010.8 hPa | 0 mm | - | 483 W/m² | - |
| 1778000931 | 11.67° C | 26% | 1010.8 hPa | 0 mm | - | 418 W/m² | - |
| 1778000628 | 11.67° C | 28% | 1010.5 hPa | 0 mm | - | 657 W/m² | - |
| 1778000323 | 11.67° C | 28% | 1010.8 hPa | 0 mm | - | 526 W/m² | - |
| 1778000019 | 12.22° C | 28% | 1010.8 hPa | 0 mm | - | 457 W/m² | - |
| 1777999715 | 12.22° C | 27% | 1011.1 hPa | 0 mm | - | 246 W/m² | - |
| 1777999411 | 12.22° C | 26% | 1010.8 hPa | 0 mm | - | 277 W/m² | - |
| 1777999110 | 12.22° C | 26% | 1010.8 hPa | 0 mm | - | 340 W/m² | - |
| 1777998808 | 12.22° C | 26% | 1011.1 hPa | 0 mm | - | 800 W/m² | - |
| 1777998506 | 12.22° C | 22% | 1010.8 hPa | 0 mm | - | 760 W/m² | - |
| 1777998202 | 12.22° C | 26% | 1010.8 hPa | 0 mm | - | 668 W/m² | - |
| 1777997900 | 11.67° C | 25% | 1010.8 hPa | 0 mm | - | 656 W/m² | - |
| 1777997597 | 11.67° C | 24% | 1010.8 hPa | 0 mm | - | 633 W/m² | - |
| 1777997294 | 11.67° C | 25% | 1011.1 hPa | 0 mm | - | 612 W/m² | - |
| 1777996992 | 11.67° C | 24% | 1011.1 hPa | 0 mm | - | 647 W/m² | - |
| 1777996688 | 12.22° C | 26% | 1010.8 hPa | 0 mm | - | 584 W/m² | - |
| 1777996384 | 12.22° C | 25% | 1011.1 hPa | 0 mm | - | 642 W/m² | - |
| 1777996080 | 12.22° C | 25% | 1010.8 hPa | 0 mm | - | 720 W/m² | - |
* Rain latest hour (hover to see other rain measurements)
** Current wind speed in m/s (hover to see current wind gust speed)